User: anonymous   Login
Location: Austin
(30.3000°N, 97.7500°W)
Time: 09:22:31
(UTC-05:00)
Language:

SWIFT - Orbit

View from above orbital plane
View from above orbital plane
View from above satellite
View from above satellite

Ground track
Ground track

The orbit data is extracted from the following two-line orbital elements,

1 28485U 04047A   24145.92265333  .00017420  00000-0  79034-3 0  9991
2 28485  20.5572 347.7205 0009210 343.7888  16.2254 15.18612999 70638
Epoch (UTC): 24 May 2024 22:08:37
Eccentricity: 0.0009210
inclination: 20.5572°
perigee height: 503 km
apogee height: 516 km
right ascension of ascending node: 347.7205°
argument of perigee: 343.7888°
revolutions per day: 15.18612999
mean anomaly at epoch: 16.2254°
orbit number at epoch: 7063

The dashed part of the orbit path shows where the satellite is in the earth's shadow,  

DLR